When you browse on this site, cookies collect data to enhance your experience and personalize the content and advertising you see.
Visit our Privacy Policy to learn more. By continuing to use the site, you agree to this use of cookies and data.
  • In United Kingdom
  • List of Countries
  • For 7 days
  • Water Temperature
  • Weather Map
  • Weather Widgets
  • user-avatar
    Login

    Hourly Weather Aberlour

    Today, 17 October, Thursday

    Time Temperature Precipitation Wind Pressure Humidity
    00:00 +5°C° 0 mm 2 mps 733 mmHg 89%
    01:00 +4°C° 0 mm 2 mps 733 mmHg 88%
    02:00 +4°C° 0 mm 2 mps 733 mmHg 88%
    03:00 +4°C° 0 mm 2 mps 733 mmHg 87%
    04:00 +4°C° 0 mm 2 mps 733 mmHg 88%
    05:00 +3°C° 0 mm 2 mps 733 mmHg 88%
    06:00 +3°C° 0 mm 2 mps 733 mmHg 88%
    07:00 +4°C° 0 mm 2 mps 733 mmHg 87%
    08:00 +6°C° 0 mm 2 mps 734 mmHg 87%
    09:00 +7°C° 0 mm 2 mps 734 mmHg 87%
    10:00 +8°C° 0 mm 2 mps 734 mmHg 83%
    11:00 +9°C° 0 mm 2 mps 734 mmHg 78%
    12:00 +12°C° 0 mm 2 mps 734 mmHg 74%
    13:00 +12°C° 0 mm 2 mps 733 mmHg 73%
    14:00 +12°C° 0 mm 2 mps 733 mmHg 73%
    15:00 +11°C° 0 mm 3 mps 733 mmHg 72%
    16:00 +10°C° 0 mm 3 mps 733 mmHg 79%
    17:00 +8°C° 0 mm 3 mps 732 mmHg 85%
    18:00 +7°C° 0 mm 3 mps 732 mmHg 92%
    19:00 +7°C° 0 mm 3 mps 732 mmHg 92%
    20:00 +7°C° 0 mm 3 mps 732 mmHg 93%
    21:00 +7°C° 0 mm 3 mps 732 mmHg 93%
    22:00 +5°C° 0 mm 3 mps 732 mmHg 93%
    23:00 +6°C° 0 mm 2 mps 731 mmHg 94%

    Tomorrow, 18 October, Friday

    Time Temperature Precipitation Wind Pressure Humidity
    00:00 +6°C° 0 mm 2 mps 731 mmHg 95%
    01:00 +6°C° 0 mm 2 mps 731 mmHg 94%
    02:00 +6°C° 0 mm 2 mps 731 mmHg 94%
    03:00 +7°C° 0 mm 2 mps 730 mmHg 94%
    04:00 +6°C° 0 mm 2 mps 730 mmHg 94%
    05:00 +7°C° 0 mm 1 mps 730 mmHg 94%
    06:00 +7°C° 0 mm 1 mps 730 mmHg 94%
    07:00 +7°C° 0 mm 1 mps 730 mmHg 91%
    08:00 +8°C° 0 mm 1 mps 730 mmHg 88%
    09:00 +8°C° 0 mm 0 mps 730 mmHg 85%
    10:00 +10°C° 0 mm 1 mps 730 mmHg 81%
    11:00 +11°C° 0 mm 1 mps 730 mmHg 77%
    12:00 +12°C° 0 mm 1 mps 730 mmHg 73%
    13:00 +12°C° 0.1 mm 1 mps 730 mmHg 76%
    14:00 +11°C° 0.1 mm 1 mps 730 mmHg 79%
    15:00 +10°C° 0.1 mm 2 mps 730 mmHg 82%
    16:00 +9°C° 0.1 mm 2 mps 730 mmHg 87%
    17:00 +9°C° 0.1 mm 1 mps 730 mmHg 91%
    18:00 +9°C° 0.1 mm 1 mps 730 mmHg 95%
    19:00 +8°C° 0.1 mm 1 mps 730 mmHg 95%
    20:00 +7°C° 0.1 mm 2 mps 730 mmHg 96%
    21:00 +6°C° 0.1 mm 2 mps 731 mmHg 97%
    22:00 +7°C° 0.2 mm 2 mps 731 mmHg 97%
    23:00 +7°C° 0.2 mm 2 mps 731 mmHg 97%

    Day after tomorrow, 19 October, Saturday

    Time Temperature Precipitation Wind Pressure Humidity
    00:00 +7°C° 0.2 mm 2 mps 731 mmHg 98%
    01:00 +7°C° 0.3 mm 3 mps 732 mmHg 96%
    02:00 +7°C° 0.3 mm 4 mps 732 mmHg 95%
    03:00 +7°C° 0.3 mm 5 mps 732 mmHg 94%
    04:00 +7°C° 0.1 mm 5 mps 732 mmHg 94%
    05:00 +7°C° 0.1 mm 5 mps 733 mmHg 93%
    06:00 +6°C° 0.1 mm 5 mps 733 mmHg 93%
    07:00 +7°C° 0.4 mm 5 mps 733 mmHg 93%
    08:00 +7°C° 0.4 mm 5 mps 734 mmHg 94%
    09:00 +7°C° 0.4 mm 5 mps 734 mmHg 95%
    10:00 +7°C° 0.8 mm 5 mps 734 mmHg 94%
    11:00 +7°C° 0.8 mm 6 mps 735 mmHg 93%
    12:00 +7°C° 0.8 mm 6 mps 735 mmHg 92%
    13:00 +7°C° 0.2 mm 6 mps 735 mmHg 91%
    14:00 +7°C° 0.2 mm 6 mps 735 mmHg 90%
    15:00 +7°C° 0.2 mm 6 mps 735 mmHg 89%
    16:00 +6°C° 0.2 mm 7 mps 736 mmHg 90%
    17:00 +6°C° 0.2 mm 7 mps 736 mmHg 92%
    18:00 +5°C° 0.2 mm 7 mps 737 mmHg 93%
    19:00 +5°C° 0.2 mm 7 mps 737 mmHg 92%
    20:00 +5°C° 0.2 mm 7 mps 737 mmHg 92%
    21:00 +5°C° 0.2 mm 7 mps 738 mmHg 91%
    22:00 +5°C° 0.1 mm 8 mps 738 mmHg 91%
    23:00 +4°C° 0.1 mm 8 mps 738 mmHg 91%

    20 October, Sunday

    Time Temperature Precipitation Wind Pressure Humidity
    00:00 +4°C° 0.1 mm 8 mps 738 mmHg 90%
    01:00 +3°C° 0.2 mm 9 mps 738 mmHg 91%
    02:00 +3°C° 0.2 mm 9 mps 738 mmHg 91%
    03:00 +3°C° 0.2 mm 10 mps 738 mmHg 92%
    04:00 +3°C° 1.1 mm 9 mps 738 mmHg 93%
    05:00 +5°C° 1.1 mm 9 mps 738 mmHg 93%
    06:00 +5°C° 1.1 mm 9 mps 739 mmHg 94%
    07:00 +6°C° 1.2 mm 9 mps 739 mmHg 94%
    08:00 +6°C° 1.2 mm 8 mps 740 mmHg 94%
    09:00 +7°C° 1.2 mm 8 mps 740 mmHg 94%
    10:00 +7°C° 0.8 mm 8 mps 741 mmHg 93%
    11:00 +7°C° 0.8 mm 8 mps 742 mmHg 92%
    12:00 +7°C° 0.8 mm 8 mps 743 mmHg 92%
    13:00 +8°C° 0.4 mm 7 mps 743 mmHg 92%
    14:00 +8°C° 0.4 mm 7 mps 744 mmHg 93%
    15:00 +8°C° 0.4 mm 6 mps 744 mmHg 94%
    16:00 +7°C° 0.4 mm 6 mps 745 mmHg 94%
    17:00 +7°C° 0.4 mm 6 mps 746 mmHg 94%
    18:00 +7°C° 0.4 mm 5 mps 747 mmHg 94%
    19:00 +7°C° 0.2 mm 5 mps 747 mmHg 93%
    20:00 +6°C° 0.2 mm 5 mps 748 mmHg 93%
    21:00 +6°C° 0.2 mm 4 mps 748 mmHg 93%
    22:00 +6°C° 0.2 mm 4 mps 749 mmHg 93%
    23:00 +6°C° 0.2 mm 4 mps 749 mmHg 93%

    21 October, Monday

    Time Temperature Precipitation Wind Pressure Humidity
    00:00 +6°C° 0.2 mm 4 mps 749 mmHg 93%
    01:00 +5°C° 0.1 mm 4 mps 750 mmHg 93%
    02:00 +5°C° 0.1 mm 3 mps 750 mmHg 93%
    03:00 +4°C° 0.1 mm 3 mps 750 mmHg 93%
    04:00 +4°C° 0 mm 3 mps 750 mmHg 93%
    05:00 +5°C° 0 mm 2 mps 750 mmHg 92%
    06:00 +5°C° 0 mm 2 mps 750 mmHg 92%
    07:00 +5°C° 0 mm 2 mps 750 mmHg 90%
    08:00 +5°C° 0 mm 2 mps 751 mmHg 89%
    09:00 +5°C° 0 mm 2 mps 751 mmHg 88%
    10:00 +6°C° 0 mm 2 mps 751 mmHg 84%
    11:00 +6°C° 0 mm 2 mps 751 mmHg 81%
    12:00 +7°C° 0 mm 2 mps 751 mmHg 78%
    13:00 +7°C° 0 mm 2 mps 751 mmHg 78%
    14:00 +7°C° 0 mm 2 mps 750 mmHg 78%
    15:00 +7°C° 0 mm 2 mps 750 mmHg 78%
    16:00 +7°C° 0 mm 1 mps 750 mmHg 81%
    17:00 +6°C° 0 mm 1 mps 750 mmHg 85%
    18:00 +6°C° 0 mm 1 mps 749 mmHg 89%
    19:00 +5°C° 0 mm 1 mps 749 mmHg 89%
    20:00 +4°C° 0 mm 2 mps 749 mmHg 90%
    21:00 +4°C° 0 mm 2 mps 749 mmHg 90%
    22:00 +4°C° 0 mm 2 mps 749 mmHg 90%
    23:00 +4°C° 0 mm 2 mps 749 mmHg 89%

    22 October, Tuesday

    Time Temperature Precipitation Wind Pressure Humidity
    00:00 +3°C° 0 mm 3 mps 748 mmHg 89%
    01:00 +3°C° 0 mm 3 mps 748 mmHg 88%
    02:00 +2°C° 0 mm 3 mps 747 mmHg 88%
    03:00 +2°C° 0 mm 3 mps 747 mmHg 87%
    04:00 +3°C° 0 mm 3 mps 747 mmHg 86%
    05:00 +3°C° 0 mm 3 mps 746 mmHg 85%
    06:00 +3°C° 0 mm 3 mps 746 mmHg 84%
    07:00 +4°C° 0 mm 3 mps 746 mmHg 83%
    08:00 +5°C° 0 mm 3 mps 746 mmHg 82%
    09:00 +7°C° 0 mm 3 mps 746 mmHg 81%
    10:00 +8°C° 0 mm 3 mps 746 mmHg 78%
    11:00 +7°C° 0 mm 4 mps 746 mmHg 74%
    12:00 +8°C° 0 mm 4 mps 745 mmHg 70%
    13:00 +8°C° 0 mm 4 mps 745 mmHg 71%
    14:00 +8°C° 0 mm 4 mps 745 mmHg 71%
    15:00 +8°C° 0 mm 4 mps 744 mmHg 72%
    16:00 +7°C° 0 mm 4 mps 744 mmHg 78%
    17:00 +5°C° 0 mm 3 mps 744 mmHg 83%
    18:00 +4°C° 0 mm 3 mps 743 mmHg 88%
    19:00 +4°C° 0 mm 3 mps 743 mmHg 88%
    20:00 +4°C° 0 mm 4 mps 743 mmHg 88%
    21:00 +3°C° 0 mm 4 mps 743 mmHg 88%
    22:00 +4°C° 0 mm 4 mps 743 mmHg 86%
    23:00 +4°C° 0 mm 4 mps 743 mmHg 84%
    Show more